THEMIS D

Last updated on Tue Sep 16 2025 00:02:40 GMT+0000 (Coordinated Universal Time)

1 30797U 07004D 25257.96099442 .00000007 00000+0 00000+0 0 9996 2 30797 3.6284 92.8346 8403867 188.3522 62.5070 0.87836189 38650
UTC large
Height (km)
Speed (km/s)
/
Latitude / Longitude
Inclination (degrees)
Orbital Period (minutes)
Azimuth
Elevation
Range (km)
Doppler Factor

Next 0 passes for location: London (51.5072 / 0.1276)

Sorry there are no passes over London.